When you browse on this site, cookies collect data to enhance your experience and personalize the content and advertising you see.
Visit our Privacy Policy to learn more. By continuing to use the site, you agree to this use of cookies and data.
  • In Netherlands
  • List of Countries
  • For 7 days
  • Water Temperature
  • Satellite Maps
  • Weather Map
  • Weather Widgets
  • user-avatar
    Login

    Hourly Weather Głowno

    Today, 26 June, Wednesday

    Time Temperature Precipitation Wind Pressure Humidity
    00:00 +24°C° 0 mm 3 mps 756 mmHg 89%
    01:00 +23°C° 0 mm 4 mps 756 mmHg 87%
    02:00 +23°C° 0 mm 4 mps 755 mmHg 87%
    03:00 +23°C° 0 mm 4 mps 755 mmHg 88%
    04:00 +22°C° 0 mm 3 mps 755 mmHg 89%
    05:00 +25°C° 0 mm 3 mps 755 mmHg 84%
    06:00 +26°C° 0 mm 3 mps 755 mmHg 79%
    07:00 +28°C° 0 mm 3 mps 755 mmHg 74%
    08:00 +29°C° 0 mm 3 mps 754 mmHg 67%
    09:00 +32°C° 0 mm 4 mps 754 mmHg 60%
    10:00 +33°C° 0 mm 4 mps 754 mmHg 53%
    11:00 +34°C° 0 mm 4 mps 754 mmHg 50%
    12:00 +35°C° 0 mm 5 mps 753 mmHg 48%
    13:00 +35°C° 0 mm 5 mps 753 mmHg 45%
    14:00 +35°C° 0 mm 5 mps 752 mmHg 47%
    15:00 +35°C° 0 mm 5 mps 752 mmHg 50%
    16:00 +35°C° 0 mm 5 mps 751 mmHg 52%
    17:00 +34°C° 0 mm 4 mps 751 mmHg 57%
    18:00 +33°C° 0 mm 3 mps 751 mmHg 63%
    19:00 +30°C° 0 mm 2 mps 750 mmHg 68%
    20:00 +30°C° 0.1 mm 3 mps 750 mmHg 68%
    21:00 +29°C° 0.1 mm 3 mps 750 mmHg 69%
    22:00 +28°C° 0.1 mm 4 mps 750 mmHg 69%
    23:00 +26°C° 0.7 mm 4 mps 750 mmHg 76%

    Tomorrow, 27 June, Thursday

    Time Temperature Precipitation Wind Pressure Humidity
    00:00 +25°C° 0.7 mm 5 mps 750 mmHg 83%
    01:00 +23°C° 0.7 mm 5 mps 750 mmHg 91%
    02:00 +22°C° 0 mm 5 mps 750 mmHg 91%
    03:00 +21°C° 0 mm 5 mps 750 mmHg 92%
    04:00 +20°C° 0 mm 6 mps 750 mmHg 92%
    05:00 +20°C° 0 mm 6 mps 750 mmHg 88%
    06:00 +20°C° 0 mm 7 mps 750 mmHg 85%
    07:00 +20°C° 0 mm 7 mps 750 mmHg 81%
    08:00 +20°C° 0 mm 7 mps 751 mmHg 77%
    09:00 +20°C° 0 mm 7 mps 751 mmHg 73%
    10:00 +20°C° 0 mm 7 mps 751 mmHg 69%
    11:00 +20°C° 0 mm 7 mps 751 mmHg 66%
    12:00 +21°C° 0 mm 7 mps 751 mmHg 63%
    13:00 +22°C° 0 mm 7 mps 751 mmHg 59%
    14:00 +22°C° 0 mm 7 mps 751 mmHg 61%
    15:00 +22°C° 0 mm 7 mps 751 mmHg 63%
    16:00 +22°C° 0 mm 7 mps 750 mmHg 64%
    17:00 +21°C° 0.1 mm 7 mps 750 mmHg 69%
    18:00 +20°C° 0.1 mm 6 mps 750 mmHg 74%
    19:00 +19°C° 0.1 mm 5 mps 750 mmHg 79%
    20:00 +17°C° 0.1 mm 5 mps 751 mmHg 83%
    21:00 +17°C° 0.1 mm 4 mps 752 mmHg 87%
    22:00 +16°C° 0.1 mm 3 mps 752 mmHg 92%
    23:00 +14°C° 0 mm 3 mps 752 mmHg 93%

    Day after tomorrow, 28 June, Friday

    Time Temperature Precipitation Wind Pressure Humidity
    00:00 +13°C° 0 mm 3 mps 752 mmHg 94%
    01:00 +13°C° 0 mm 3 mps 753 mmHg 96%
    02:00 +12°C° 0 mm 3 mps 753 mmHg 95%
    03:00 +12°C° 0 mm 3 mps 753 mmHg 94%
    04:00 +12°C° 0 mm 2 mps 753 mmHg 94%
    05:00 +13°C° 0 mm 3 mps 753 mmHg 88%
    06:00 +14°C° 0 mm 3 mps 753 mmHg 83%
    07:00 +17°C° 0 mm 3 mps 753 mmHg 78%
    08:00 +18°C° 0 mm 4 mps 753 mmHg 69%
    09:00 +20°C° 0 mm 4 mps 753 mmHg 60%
    10:00 +21°C° 0 mm 5 mps 753 mmHg 51%
    11:00 +22°C° 0 mm 5 mps 752 mmHg 51%
    12:00 +22°C° 0 mm 5 mps 752 mmHg 50%
    13:00 +23°C° 0 mm 6 mps 752 mmHg 50%
    14:00 +23°C° 0 mm 6 mps 752 mmHg 50%
    15:00 +22°C° 0 mm 6 mps 752 mmHg 50%
    16:00 +22°C° 0 mm 6 mps 752 mmHg 50%
    17:00 +21°C° 0 mm 5 mps 752 mmHg 55%
    18:00 +20°C° 0 mm 5 mps 752 mmHg 59%
    19:00 +17°C° 0 mm 5 mps 753 mmHg 63%
    20:00 +17°C° 0 mm 4 mps 753 mmHg 63%
    21:00 +14°C° 0 mm 4 mps 753 mmHg 63%
    22:00 +13°C° 0 mm 4 mps 754 mmHg 63%
    23:00 +12°C° 0 mm 3 mps 754 mmHg 65%

    29 June, Saturday

    Time Temperature Precipitation Wind Pressure Humidity
    00:00 +12°C° 0 mm 3 mps 754 mmHg 67%
    01:00 +11°C° 0 mm 3 mps 754 mmHg 70%
    02:00 +11°C° 0 mm 3 mps 754 mmHg 72%
    03:00 +10°C° 0 mm 3 mps 754 mmHg 74%
    04:00 +10°C° 0 mm 3 mps 754 mmHg 76%
    05:00 +12°C° 0 mm 3 mps 754 mmHg 72%
    06:00 +14°C° 0 mm 3 mps 754 mmHg 67%
    07:00 +17°C° 0 mm 3 mps 754 mmHg 63%
    08:00 +18°C° 0 mm 3 mps 754 mmHg 60%
    09:00 +20°C° 0 mm 4 mps 754 mmHg 57%
    10:00 +21°C° 0 mm 4 mps 754 mmHg 54%
    11:00 +22°C° 0 mm 4 mps 754 mmHg 53%
    12:00 +23°C° 0 mm 5 mps 754 mmHg 52%
    13:00 +25°C° 0 mm 5 mps 753 mmHg 51%
    14:00 +25°C° 0.1 mm 5 mps 753 mmHg 52%
    15:00 +25°C° 0.1 mm 5 mps 753 mmHg 53%
    16:00 +25°C° 0.1 mm 5 mps 753 mmHg 53%
    17:00 +23°C° 0 mm 4 mps 752 mmHg 58%
    18:00 +22°C° 0 mm 3 mps 752 mmHg 62%
    19:00 +21°C° 0 mm 2 mps 752 mmHg 67%
    20:00 +20°C° 0 mm 2 mps 752 mmHg 66%
    21:00 +19°C° 0 mm 2 mps 752 mmHg 65%
    22:00 +18°C° 0 mm 3 mps 752 mmHg 64%
    23:00 +18°C° 0 mm 3 mps 752 mmHg 64%

    30 June, Sunday

    Time Temperature Precipitation Wind Pressure Humidity
    00:00 +17°C° 0 mm 3 mps 752 mmHg 63%
    01:00 +17°C° 0 mm 3 mps 752 mmHg 63%
    02:00 +17°C° 0 mm 3 mps 752 mmHg 64%
    03:00 +16°C° 0 mm 3 mps 752 mmHg 66%
    04:00 +16°C° 0 mm 3 mps 752 mmHg 67%
    05:00 +18°C° 0 mm 3 mps 752 mmHg 65%
    06:00 +19°C° 0 mm 3 mps 752 mmHg 63%
    07:00 +21°C° 0 mm 3 mps 752 mmHg 61%
    08:00 +24°C° 0 mm 3 mps 752 mmHg 56%
    09:00 +26°C° 0 mm 3 mps 752 mmHg 50%
    10:00 +28°C° 0 mm 3 mps 752 mmHg 45%
    11:00 +29°C° 0 mm 4 mps 751 mmHg 43%
    12:00 +30°C° 0 mm 4 mps 751 mmHg 41%
    13:00 +32°C° 0 mm 4 mps 751 mmHg 39%
    14:00 +32°C° 0 mm 4 mps 750 mmHg 41%
    15:00 +32°C° 0 mm 4 mps 750 mmHg 42%
    16:00 +32°C° 0 mm 5 mps 750 mmHg 43%
    17:00 +29°C° 0 mm 4 mps 749 mmHg 49%
    18:00 +28°C° 0 mm 4 mps 749 mmHg 55%
    19:00 +26°C° 0 mm 4 mps 749 mmHg 61%
    20:00 +25°C° 0 mm 5 mps 749 mmHg 63%
    21:00 +25°C° 0 mm 5 mps 749 mmHg 66%
    22:00 +23°C° 0 mm 5 mps 749 mmHg 68%
    23:00 +22°C° 0 mm 6 mps 748 mmHg 70%

    1 July, Monday

    Time Temperature Precipitation Wind Pressure Humidity
    00:00 +22°C° 0 mm 6 mps 748 mmHg 72%
    01:00 +22°C° 0 mm 6 mps 748 mmHg 74%
    02:00 +21°C° 0 mm 5 mps 748 mmHg 77%
    03:00 +21°C° 0 mm 5 mps 748 mmHg 80%
    04:00 +20°C° 0 mm 4 mps 748 mmHg 83%
    05:00 +21°C° 0 mm 4 mps 748 mmHg 79%
    06:00 +22°C° 0 mm 3 mps 748 mmHg 75%
    07:00 +24°C° 0 mm 3 mps 749 mmHg 71%
    08:00 +25°C° 0 mm 3 mps 749 mmHg 67%
    09:00 +26°C° 0 mm 4 mps 749 mmHg 63%
    10:00 +27°C° 0 mm 4 mps 749 mmHg 59%
    11:00 +27°C° 0 mm 4 mps 748 mmHg 57%
    12:00 +28°C° 0 mm 4 mps 748 mmHg 56%
    13:00 +29°C° 0 mm 4 mps 748 mmHg 54%
    14:00 +28°C° 0 mm 4 mps 747 mmHg 55%
    15:00 +28°C° 0 mm 4 mps 747 mmHg 57%
    16:00 +28°C° 0 mm 4 mps 746 mmHg 58%
    17:00 +27°C° 0.1 mm 3 mps 746 mmHg 63%
    18:00 +26°C° 0.1 mm 2 mps 746 mmHg 68%
    19:00 +25°C° 0.1 mm 1 mps 746 mmHg 73%
    20:00 +24°C° 0.9 mm 1 mps 746 mmHg 78%
    21:00 +22°C° 0.9 mm 1 mps 746 mmHg 84%
    22:00 +20°C° 0.9 mm 2 mps 746 mmHg 89%
    23:00 +19°C° 0.4 mm 2 mps 746 mmHg 89%
    Show more